FW6053 Weather Reports


time (UTC)temp
C
wind
direction
speed
KPH
gust
KPH
rain 1hr
cm
rain 24hr
cm
rain mn
cm
humidity
%
barometer
mb
20260506143056 10 165 6.4 12.9 0.00 0.00 0.00 58 1016.1
20260506141554 11 179 11.3 27.4 0.00 0.00 0.00 57 1016.2
20260506140053 10 170 6.4 16.1 0.00 0.00 0.00 59 1016.2
20260506134554 9 195 3.2 8.0 0.00 0.00 0.00 59 1016.2
20260506133053 9 157 4.8 14.5 0.00 0.00 0.00 61 1016.3
20260506131601 10 171 3.2 17.7 0.00 0.00 0.00 60 1016.5
20260506130056 10 156 4.8 16.1 0.00 0.00 0.00 54 1016.4
20260506124557 11 162 6.4 16.1 0.00 0.00 0.00 51 1016.3
20260506123112 10 229 4.8 9.7 0.00 0.00 0.00 57 1016.5
20260506121608 9 160 3.2 17.7 0.00 0.00 0.00 58 1016.6
20260506120059 9 189 4.8 16.1 0.00 0.00 0.00 57 1016.6
20260506114557 10 171 6.4 14.5 0.00 0.00 0.00 58 1016.6
20260506113053 10 166 4.8 14.5 0.00 0.00 0.00 57 1016.8
20260506111555 10 226 6.4 16.1 0.00 0.00 0.00 56 1016.9
20260506104557 9 277 3.2 19.3 0.00 0.00 0.00 61 1017.2
20260506103058 8 183 4.8 12.9 0.00 0.00 0.00 62 1017.1
20260506101609 9 240 1.6 17.7 0.00 0.00 0.00 63 1017.1
20260506100050 10 275 1.6 11.3 0.00 0.00 0.00 63 1017.4
20260506094558 8 190 6.4 16.1 0.00 0.00 0.00 63 1017.4
20260506093058 8 229 1.6 12.9 0.00 0.00 0.00 62 1017.6
20260506091556 8 212 1.6 14.5 0.00 0.00 0.00 65 1017.6
20260506084615 7 199 4.8 9.7 0.00 0.00 0.00 69 1017.9
20260506083053 7 203 3.2 9.7 0.00 0.00 0.00 70 1018.0
20260506081603 7 0 3.2 8.0 0.00 0.00 0.00 72 1018.0
20260506073054 5 0 0.0 0.0 0.00 0.00 0.00 82 1018.1
20260506071556 5 0 0.0 3.2 0.00 0.00 0.00 84 1018.3
20260506061556 2 0 0.0 0.0 0.00 0.00 0.00 89 1018.2
20260506050113 1 0 0.0 0.0 0.00 0.00 0.00 89 1018.4
20260506044554 1 0 0.0 3.2 0.00 0.00 0.00 89 1018.2
20260506043054 0 0 0.0 3.2 0.00 0.00 0.00 88 1018.2
20260506041601 0 0 0.0 0.0 0.00 0.00 0.00 88 1018.2
20260506040057 0 0 0.0 0.0 0.00 0.00 0.00 88 1018.3
20260506034555 0 0 0.0 0.0 0.00 0.00 0.00 87 1018.2
20260506033053 1 0 0.0 0.0 0.00 0.00 0.00 87 1018.1
20260506031552 1 0 0.0 0.0 0.00 0.00 0.00 87 1018.2
20260506030059 1 0 0.0 0.0 0.00 0.00 0.00 87 1018.4
20260506024606 1 0 0.0 0.0 0.00 0.00 0.00 87 1018.4
20260506023111 1 0 0.0 0.0 0.00 0.00 0.00 86 1018.3
20260506021552 1 0 0.0 0.0 0.00 0.00 0.00 85 1018.5
20260506020056 1 0 0.0 0.0 0.00 0.00 0.00 85 1018.5
20260506014559 1 0 0.0 0.0 0.00 0.00 0.00 84 1018.6
20260506013056 1 0 0.0 3.2 0.00 0.00 0.00 84 1018.6
20260506011552 1 0 0.0 3.2 0.00 0.00 0.00 83 1018.7
20260506010055 1 0 0.0 0.0 0.00 0.00 0.00 83 1018.7
20260506004558 1 0 0.0 1.6 0.00 0.00 0.00 83 1018.8
20260506003059 1 0 0.0 1.6 0.00 0.00 0.00 82 1018.9
20260506001558 2 0 0.0 3.2 0.00 0.00 0.00 82 1018.9
20260505234558 2 0 0.0 0.0 0.00 0.00 0.00 81 1019.0
20260505233056 3 0 0.0 0.0 0.00 0.00 0.00 80 1019.1
20260505231554 3 0 0.0 0.0 0.00 0.00 0.00 78 1019.2
20260505230120 3 0 0.0 0.0 0.00 0.00 0.00 78 1019.2
20260505224552 3 0 0.0 1.6 0.00 0.00 0.00 77 1019.1
20260505223054 4 86 0.0 3.2 0.00 0.00 0.00 77 1019.2
20260505221557 4 0 0.0 0.0 0.00 0.00 0.00 77 1019.2
20260505220056 5 0 0.0 1.6 0.00 0.00 0.00 77 1019.3
20260505214559 5 0 0.0 1.6 0.00 0.00 0.00 76 1019.3
20260505213052 5 0 0.0 1.6 0.00 0.00 0.00 76 1019.4
20260505211603 5 0 0.0 1.6 0.00 0.00 0.00 76 1019.4
20260505204603 5 0 0.0 1.6 0.00 0.00 0.00 74 1019.4
20260505203102 5 86 0.0 3.2 0.00 0.00 0.00 74 1019.3
20260505201555 6 86 1.6 4.8 0.00 0.00 0.00 73 1019.3
20260505200107 6 0 1.6 9.7 0.00 0.00 0.00 72 1019.3
20260505194551 6 86 1.6 9.7 0.00 0.00 0.00 72 1019.3
20260505193102 6 94 0.0 6.4 0.00 0.00 0.00 72 1019.1
20260505191557 6 0 0.0 11.3 0.00 0.00 0.00 71 1018.9
20260505190054 6 0 0.0 4.8 0.00 0.00 0.00 71 1018.9
20260505184550 6 84 1.6 6.4 0.00 0.00 0.00 71 1018.9
20260505183053 6 98 1.6 12.9 0.00 0.00 0.00 70 1018.7
20260505181559 6 82 3.2 8.0 0.00 0.00 0.00 70 1018.8
20260505180058 6 82 4.8 14.5 0.00 0.00 0.00 71 1018.8
20260505174602 6 94 1.6 11.3 0.00 0.00 0.00 70 1018.7
20260505173056 6 95 6.4 14.5 0.00 0.00 0.00 70 1018.6
20260505171556 6 76 4.8 11.3 0.00 0.00 0.00 70 1018.6
20260505170055 7 80 0.0 11.3 0.00 0.00 0.00 71 1018.5
20260505164602 7 78 8.0 16.1 0.00 0.00 0.00 70 1018.4
20260505163103 7 97 4.8 14.5 0.00 0.00 0.00 70 1018.4
20260505161609 7 90 4.8 14.5 0.00 0.00 0.00 69 1018.1
20260505153110 8 165 1.6 14.5 0.00 0.00 0.00 68 1018.1
20260505151559 8 93 3.2 17.7 0.00 0.00 0.00 70 1018.0
20260505150108 8 89 1.6 16.1 0.00 0.00 0.00 67 1017.9